Regional Weather Roundup
Issued by NWS

Home | Current Version | Previous Version | Text Only | Print | Product List | Glossary On
Versions: 1 2 3 4 5 6 7 8 9 10 11 12 13 14 15 16 17 18 19 20 21 22 23 24 25 26 27
000
ASUS42 KTBW 261917
RWRFL
FLORIDA REGIONAL WEATHER ROUNDUP
NATIONAL WEATHER SERVICE TAMPA BAY RUSKIN FL
300 PM EDT SUN MAR 26 2017

NOTE: "FAIR" INDICATES FEW OR NO CLOUDS BELOW 12,000 FEET WITH NO
SIGNIFICANT WEATHER AND/OR OBSTRUCTIONS TO VISIBILITY.

FLZ001>010-012>015-112-114-115-262000-
PANHANDLE FLORIDA

CITY           SKY/WX    TMP DP  RH WIND       PRES   REMARKS
PENSACOLA      PTSUNNY   76  67  73 SE17      30.07F
PENSACOLA NAS  MOSUNNY   77  68  73 SE13      30.07F
CRESTVIEW      MOSUNNY   78  64  61 S12G22    30.09F
DUKE FIELD     FAIR      77  65  65 S15       30.07F
VALPARAISO     PTSUNNY   76  66  71 S12       30.09F
PANAMA CITY    CLOUDY    76  63  64 S15G21    30.10F
TYNDALL AFB    DRIZZLE   77  61  56 S13       30.10F
APALACHICOLA   PTSUNNY   73  68  84 SE9       30.12F

STATION/POSITION SKY/WX   TEMP    WIND        PRES    WAVE   SWELL
                          AIR SEA DIR/SP/G            HT/PER HT/PER
                          (F)     (DEG/KT/KT) (MB)    (FT/S) (FT/S)
30.1N   87.6W              71 70  160/  8/  8 1018.4F   3/ 6   3/ 6
29.2N   88.2W              73 74  150/  8/ 10 1018.4F   4/ 8   3/ 8
28.8N   86.0W              72 71              1019.3F   3/ 8   3/ 8
PANAMA CITY BEAC           69 71  140/  9/ 11 1019.8F
TOWER C                    69     150/  9/ 10 1020.3F
28.5N   84.5W              70 71  150/  8/ 10 1019.6F   2/ 6   2/ 6

$$
FLZ011-016>038-118-127-128-134-139-239-262000-
NORTH FLORIDA

CITY           SKY/WX    TMP DP  RH WIND       PRES   REMARKS
MARIANNA       PTSUNNY   81  58  45 SW9       30.06F
TALLAHASSEE    PTSUNNY   81  62  52 SE14      30.10F
PERRY          SUNNY     81  60  48 SW15      30.12F
CROSS CITY     PTSUNNY   82  61  47 SW9       30.10F
LAKE CITY      CLOUDY    79  54  41 SE3       30.10F
GAINESVILLE    PTSUNNY   84  55  36 NE8       30.10F
WILLISTON      SUNNY     86  55  35 CALM      30.10F
PALATKA        FAIR      82  50  32 NE9       30.11F
MAYPORT NAS    SUNNY     76  60  57 E10       30.14F
JACKSONVILLE   MOSUNNY   79  56  45 SE9G16    30.11F
JAX NAS        MOSUNNY   79  55  43 SE6       30.12F
FERNANDINA BEA FAIR      77  63  61 E9        30.13F
ST AUGUSTINE   SUNNY     76  62  62 E12       30.14F
PALM COAST     SUNNY     81  57  44 E12G25    30.13F

STATION/POSITION SKY/WX   TEMP    WIND        PRES    WAVE   SWELL
                          AIR SEA DIR/SP/G            HT/PER HT/PER
                          (F)     (DEG/KT/KT) (MB)    (FT/S) (FT/S)
SHELL POINT      NOT AVBL
KEATON BEACH               70     190/ 12/ 14 1019.9F
CEDAR KEY                  73     250/  5/  8 1019.9F
FERNANDINA                 76 68   90/  8/ 11 1021.4F
30.7N   81.3W                 68                N/A     3/ 8
MAYPORT                    71 68   70/ 11/ 13 1020.9F
31.4N   80.9W              66 65  120/ 10/ 14 1021.1F   4/ 9   3/ 9
ST AUGUSTINE               69 70   70/  9/  9 1021.3F

$$
FLZ040-043>046-052-053-057-058-063-144-262000-
INTERIOR CENTRAL FLORIDA

CITY           SKY/WX    TMP DP  RH WIND       PRES   REMARKS
OCALA          MOSUNNY   82  55  39 NE7       30.11F
THE VILLAGES     N/A     82  59  44 MISG      30.00F
LEESBURG       SUNNY     82  56  40 VRB7      30.11F
SANFORD        MOSUNNY   82  57  42 SE9       30.10F
ORLANDO EXEC   PTSUNNY   83  56  39 N10       30.10F
ORLANDO INTL   PTSUNNY   82  54  37 NE6       30.09F
KISSIMMEE      PTSUNNY   83  55  38 CALM      30.10F
WINTER HAVEN   MOSUNNY   81  53  37 E5        30.10F
LAKELAND       MOSUNNY   82  57  42 E3        30.10F
OKEECHOBEE     PTSUNNY  N/A N/A N/A E7        30.09F

$$
FLZ041-047-054-059-064-141-147-262000-
EAST CENTRAL FLORIDA

CITY           SKY/WX    TMP DP  RH WIND       PRES   REMARKS
ORMOND BEACH   SUNNY     79  59  50 E12G18    30.13F
DAYTONA BEACH  MOSUNNY   78  61  55 E10G17    30.13F
DELAND         CLOUDY    79  59  50 E12G17    30.11F
NEW SMYRNA BEA MOSUNNY   77  63  61 E12       30.14F
JFK SPACE CTR  MOSUNNY   79  60  53 E13G20    30.11F
TITUSVILLE     MOSUNNY   79  55  44 E14       30.12F
CAPE CANAVERAL SUNNY     82  60  47 E10       30.11F
PATRICK AFB    SUNNY     78  63  59 E12       30.11F
MELBOURNE      SUNNY     80  59  48 E14       30.11F
VERO BEACH     SUNNY     79  60  52 E14       30.11F
FT PIERCE      PTSUNNY   76  63  64 SE13      30.10F
STUART         MOSUNNY   81  63  54 E15G21    30.12

STATION/POSITION SKY/WX   TEMP    WIND        PRES    WAVE   SWELL
                          AIR SEA DIR/SP/G            HT/PER HT/PER
                          (F)     (DEG/KT/KT) (MB)    (FT/S) (FT/S)
TRIDENT PIER               78 71   90/  9/ 13 1021.2F
28.4N   80.5W                 72                N/A     3/ 8   2/11
27.5N   80.2W                 74                N/A     4/10   2/11

$$
FLZ050-056-061-142-242-148-248-149-249-151-251-155-255-
160-260-262000-
WEST CENTRAL FLORIDA

CITY           SKY/WX    TMP DP  RH WIND       PRES   REMARKS
CRYSTAL RIVER  PTSUNNY   77  61  57 W6        30.10F
INVERNESS      FAIR      82  59  44 E7        30.10F HAZE
BROOKSVILLE    PTSUNNY   85  55  35 NE8       30.09F
CLEARWATER AIR FAIR      81  59  47 E5        30.09F
ST PETE CLEARW MOSUNNY   83  57  41 NE8       30.09F
TAMPA INTL     PTSUNNY   81  60  48 W7        30.09F
TAMPA EXEC     PTSUNNY   86  54  32 E5        30.10F
PLANT CITY     MOSUNNY   84  57  39 NE5       30.11F
MACDILL AFB    MOSUNNY   87  57  35 CALM      30.08F
PETER O KNIGHT MOSUNNY   84  61  45 NE5       30.09F
ST PETERSBURG  SUNNY     80  63  55 NE3       30.07F
SARASOTA       MOSUNNY   78  63  59 W9        30.07F
VENICE         FAIR      79  66  65 SW13      30.08F

STATION/POSITION SKY/WX   TEMP    WIND        PRES    WAVE   SWELL
                          AIR SEA DIR/SP/G            HT/PER HT/PER
                          (F)     (DEG/KT/KT) (MB)    (FT/S) (FT/S)
27.3N   84.2W                 72                N/A     3/ 4
CLEARWATER BEACH NOT AVBL
MIDDLE TAMPA BAY           73      10/  9/ 10 1019.1F
VENICE                     73 70  220/ 11/ 12 1018.2F

$$
FLZ066-069-070-075>078-162-262-165-265-262000-
SOUTHWEST FLORIDA AND KEYS

CITY           SKY/WX    TMP DP  RH WIND       PRES   REMARKS
PUNTA GORDA    CLOUDY    80  60  50 E10       30.10F
FT MYERS       CLOUDY    83  56  39 E6        30.07F
SOUTHWEST INTL CLOUDY    80  56  43 E13       30.07F
NAPLES         PTSUNNY   82  62  50 E10       30.06F
IMMOKALEE      PTSUNNY   77  63  61 VRB6      30.07F
MARATHON       SUNNY     84  66  54 E12G18    30.05F
KEY WEST NAS   SUNNY     82  65  56 E13       30.05F
KEY WEST INTL  SUNNY     81  65  58 E13       30.05F

STATION/POSITION SKY/WX   TEMP    WIND        PRES    WAVE   SWELL
                          AIR SEA DIR/SP/G            HT/PER HT/PER
                          (F)     (DEG/KT/KT) (MB)    (FT/S) (FT/S)
NAPLES                        72              1018.0F
26.0N   85.6W              75 78  110/ 12/ 14 1018.4F   4/ 8   3/ 8
DRY TORTUGAS               74      80/ 14/ 15 1017.7F
SAND KEY                   76     110/ 14/ 17 1018.0F
LONG KEY                   75 76  110/ 11/ 12 1018.2F
MOLASSES REEF              75 77   90/ 12/ 13 1018.2F

$$
FLZ067-068-071>074-168-172>174-262000-
SOUTHEAST FLORIDA

CITY           SKY/WX    TMP DP  RH WIND       PRES   REMARKS
W PALM BEACH   MOSUNNY   77  59  53 E14G20    30.11F
BOCA RATON     MOSUNNY   79  64  61 E17       30.10F
FT LAUDER-EXEC MOSUNNY   79  62  56 E14G21    30.08F
FT LAUDERDALE  CLOUDY    77  65  66 E16       30.07F
POMPANO BEACH  MOSUNNY   79  64  60 E15       30.09F
PEMBROKE PINES MOSUNNY   80  63  55 E14       30.09F
OPA LOCKA      LGT RAIN  77  62  59 E16       30.08F
MIAMI          PTSUNNY   82  62  50 E12       30.07F
WEST KENDALL   MOSUNNY   82  61  48 E14       30.07F
HOMESTEAD      SUNNY     78  65  64 E15G21    30.07F

STATION/POSITION SKY/WX   TEMP    WIND        PRES    WAVE   SWELL
                          AIR SEA DIR/SP/G            HT/PER HT/PER
                          (F)     (DEG/KT/KT) (MB)    (FT/S) (FT/S)
PORT EVERGLADES            75      70/ 12/ 16 1018.8F
VIRGINIA KEY               75      80/ 12/ 14 1018.9F
LAKE WORTH                         80/ 11/ 13   N/A
FOWEY ROCKS                74 76   70/ 16/ 16 1018.8F
SETTLEMENT POINT           72      60/ 16/ 18 1019.3F

$$





USA.gov is the U.S. government's official web portal to all federal, state and local government web resources and services.